Location: Kergonan
(48.2337°N, 4.5518°W)
Time: 21:44:14
(UTC+00:00)

Cosmos 2278 - Pass Details

Date: 18 January 2020
Orbit: 840 x 853 km, 71.1° (Epoch: 18 February)

Event Time Altitude Azimuth Distance (km) Brightness Sun altitude
Rises 06:25:08 0° 214° (SW) 3,408 6.6 -15.8°
Reaches altitude 10° 06:27:36 10° 217° (SW) 2,476 5.9 -15.4°
Maximum altitude 06:33:16 68° 300° (WNW) 920 3.7 -14.5°
Drops below altitude 10° 06:38:58 10° 24° (NNE) 2,491 6.2 -13.5°
Sets 06:41:27 0° 27° (NNE) 3,430 7.0 -13.1°
